カタログに戻る

COSMOS 970 DEB

運用中LEO
NORAD 12865·DEBRIS·🇷🇺 Russia

打ち上げ Dec 21, 1977 から Baikonur Cosmodrome

Loading…

次のパス (今後24時間)

TLE

経年Source: Space-Track

元期: Sep 11, 2026, 04:21 UTC

1 12865U 77121AT  26254.18159485  .00000318  00000-0  40868-3 0  9991
2 12865  65.7709 317.0454 0063375 356.0862  34.9398 13.75453863109018

AllMySatでCOSMOS 970 DEBをリアルタイム追跡

Download on the App Store